FAE630 SEMT-SEQM

Flight info

Callsign FAE630
Flight time 0h 34m
Altitude 23000
Route PTN ANLIR W6 QIT
Aircraft B736/M-SDE2E3FGHIRWXY/LB1

Departure

Time 2026-04-22 03:42
Airport Eloy Alfaro International Airport (SEMT)

Arrival

Time 2026-04-22 04:16
Airport Mariscal Sucre International Airport (SEQM)
Time Latitude Longitude Altitude Speed Heading
2026-04-22 03:22 -1.04543 -80.46904 129 ft 0 kts 304°
2026-04-22 03:36 -1.04541 -80.46905 133 ft 1 kts 310°
2026-04-22 03:36 -1.04533 -80.46906 133 ft 1 kts 358°
2026-04-22 03:37 -1.04525 -80.46901 135 ft 1 kts 33°
2026-04-22 03:37 -1.04526 -80.46890 135 ft 2 kts 108°
2026-04-22 03:37 -1.04535 -80.46872 135 ft 4 kts 119°
2026-04-22 03:37 -1.04552 -80.46845 135 ft 6 kts 122°
2026-04-22 03:38 -1.04577 -80.46807 135 ft 8 kts 126°
2026-04-22 03:38 -1.04613 -80.46761 135 ft 9 kts 128°
2026-04-22 03:38 -1.04649 -80.46715 136 ft 9 kts 128°
2026-04-22 03:38 -1.04689 -80.46664 138 ft 10 kts 128°
2026-04-22 03:39 -1.04738 -80.46601 139 ft 12 kts 127°
2026-04-22 03:39 -1.04790 -80.46533 137 ft 13 kts 128°
2026-04-22 03:39 -1.04831 -80.46473 137 ft 1 kts 94°
2026-04-22 03:39 -1.04824 -80.46467 137 ft 2 kts 47°
2026-04-22 03:40 -1.04807 -80.46448 138 ft 5 kts 47°
2026-04-22 03:40 -1.04770 -80.46434 138 ft 3 kts 325°
2026-04-22 03:40 -1.04767 -80.46439 138 ft 0 kts 307°
2026-04-22 03:41 -1.04766 -80.46441 138 ft 4 kts 307°
2026-04-22 03:41 -1.04595 -80.46663 137 ft 77 kts 308°
2026-04-22 03:41 -1.04123 -80.47263 138 ft 139 kts 307°
2026-04-22 03:42 -1.03450 -80.48115 393 ft 164 kts 308°
2026-04-22 03:42 -1.02717 -80.48977 1033 ft 162 kts 321°
2026-04-22 03:42 -1.01666 -80.49226 1673 ft 161 kts 17°
2026-04-22 03:42 -1.00701 -80.48649 2170 ft 174 kts 34°
2026-04-22 03:43 -0.99627 -80.47893 2434 ft 203 kts 33°
2026-04-22 03:43 -0.98379 -80.47029 2663 ft 233 kts 33°
2026-04-22 03:43 -0.96961 -80.46063 3021 ft 256 kts 33°
2026-04-22 03:43 -0.95464 -80.45058 3725 ft 262 kts 33°
2026-04-22 03:44 -0.93931 -80.44042 4510 ft 265 kts 33°
2026-04-22 03:44 -0.92384 -80.43028 5326 ft 267 kts 34°
2026-04-22 03:44 -0.90822 -80.42009 6123 ft 270 kts 33°
2026-04-22 03:44 -0.89237 -80.40980 6907 ft 273 kts 33°
2026-04-22 03:45 -0.87631 -80.39940 7701 ft 277 kts 33°
2026-04-22 03:45 -0.85998 -80.38885 8521 ft 281 kts 33°
2026-04-22 03:45 -0.84343 -80.37817 9381 ft 285 kts 33°
2026-04-22 03:45 -0.82664 -80.36734 10225 ft 290 kts 32°
2026-04-22 03:46 -0.80991 -80.35483 10613 ft 313 kts 46°
2026-04-22 03:46 -0.79720 -80.33669 11201 ft 325 kts 63°
2026-04-22 03:46 -0.78783 -80.31590 11995 ft 330 kts 66°
2026-04-22 03:46 -0.77910 -80.29457 12804 ft 335 kts 68°
2026-04-22 03:47 -0.77038 -80.27273 13611 ft 340 kts 67°
2026-04-22 03:47 -0.76152 -80.25061 14333 ft 346 kts 67°
2026-04-22 03:47 -0.75247 -80.22821 15103 ft 350 kts 67°
2026-04-22 03:47 -0.74321 -80.20553 15850 ft 354 kts 67°
2026-04-22 03:48 -0.73380 -80.18260 16599 ft 359 kts 67°
2026-04-22 03:48 -0.72423 -80.15941 17345 ft 363 kts 67°
2026-04-22 03:48 -0.71449 -80.13589 18089 ft 368 kts 67°
2026-04-22 03:48 -0.70463 -80.11212 18760 ft 372 kts 67°
2026-04-22 03:49 -0.69472 -80.08825 19548 ft 371 kts 67°
2026-04-22 03:49 -0.68491 -80.06462 20475 ft 366 kts 67°
2026-04-22 03:49 -0.67522 -80.04130 21418 ft 362 kts 67°
2026-04-22 03:49 -0.66561 -80.01817 22299 ft 360 kts 67°
2026-04-22 03:50 -0.65597 -79.99497 22801 ft 360 kts 67°
2026-04-22 03:50 -0.64638 -79.97190 23064 ft 363 kts 67°
2026-04-22 03:50 -0.63655 -79.94824 23065 ft 383 kts 67°
2026-04-22 03:50 -0.62608 -79.92306 23076 ft 401 kts 67°
2026-04-22 03:51 -0.61523 -79.89698 23070 ft 410 kts 67°
2026-04-22 03:51 -0.60429 -79.87064 23063 ft 409 kts 67°
2026-04-22 03:51 -0.59340 -79.84445 23067 ft 407 kts 67°
2026-04-22 03:51 -0.58256 -79.81834 23073 ft 407 kts 67°
2026-04-22 03:52 -0.57171 -79.79223 23075 ft 406 kts 67°
2026-04-22 03:52 -0.56087 -79.76616 23085 ft 406 kts 67°
2026-04-22 03:52 -0.55007 -79.74018 23093 ft 406 kts 67°
2026-04-22 03:52 -0.53921 -79.71405 23095 ft 407 kts 67°
2026-04-22 03:53 -0.52838 -79.68799 23096 ft 407 kts 67°
2026-04-22 03:53 -0.51750 -79.66181 23099 ft 408 kts 67°
2026-04-22 03:53 -0.50662 -79.63564 23104 ft 408 kts 67°
2026-04-22 03:53 -0.49572 -79.60941 23111 ft 409 kts 67°
2026-04-22 03:54 -0.48484 -79.58323 23117 ft 409 kts 67°
2026-04-22 03:54 -0.47391 -79.55694 23125 ft 409 kts 67°
2026-04-22 03:54 -0.46299 -79.53066 23127 ft 409 kts 67°
2026-04-22 03:54 -0.45208 -79.50441 23132 ft 409 kts 67°
2026-04-22 03:55 -0.44118 -79.47819 23132 ft 409 kts 67°
2026-04-22 03:55 -0.43024 -79.45188 23138 ft 409 kts 67°
2026-04-22 03:55 -0.41933 -79.42564 23152 ft 409 kts 67°
2026-04-22 03:55 -0.40841 -79.39936 23159 ft 409 kts 67°
2026-04-22 03:56 -0.39751 -79.37313 23163 ft 409 kts 67°
2026-04-22 03:56 -0.38675 -79.34725 23165 ft 409 kts 67°
2026-04-22 03:56 -0.37585 -79.32102 23179 ft 409 kts 67°
2026-04-22 03:56 -0.36495 -79.29481 23183 ft 409 kts 67°
2026-04-22 03:57 -0.35405 -79.26857 23191 ft 409 kts 67°
2026-04-22 03:57 -0.34316 -79.24237 23197 ft 409 kts 67°
2026-04-22 03:57 -0.33225 -79.21612 23206 ft 409 kts 67°
2026-04-22 03:57 -0.32136 -79.18992 23216 ft 409 kts 67°
2026-04-22 03:58 -0.31045 -79.16370 23224 ft 409 kts 67°
2026-04-22 03:58 -0.29951 -79.13750 23228 ft 409 kts 67°
2026-04-22 03:58 -0.28857 -79.11130 23238 ft 409 kts 67°
2026-04-22 03:58 -0.27759 -79.08504 23244 ft 409 kts 67°
2026-04-22 03:59 -0.26664 -79.05881 23254 ft 409 kts 67°
2026-04-22 03:59 -0.25568 -79.03256 23258 ft 409 kts 67°
2026-04-22 03:59 -0.24472 -79.00632 23269 ft 409 kts 67°
2026-04-22 03:59 -0.23377 -78.98009 23273 ft 409 kts 67°
2026-04-22 04:00 -0.22282 -78.95385 23278 ft 409 kts 67°
2026-04-22 04:00 -0.21186 -78.92758 23283 ft 409 kts 67°
2026-04-22 04:00 -0.20092 -78.90137 23286 ft 409 kts 67°
2026-04-22 04:00 -0.18998 -78.87516 23297 ft 408 kts 67°
2026-04-22 04:01 -0.17922 -78.84938 23284 ft 394 kts 67°
2026-04-22 04:01 -0.16888 -78.82463 23289 ft 378 kts 67°
2026-04-22 04:01 -0.15898 -78.80090 23272 ft 363 kts 67°
2026-04-22 04:01 -0.14936 -78.77785 23000 ft 356 kts 67°
2026-04-22 04:02 -0.14216 -78.76059 22596 ft 358 kts 67°
2026-04-22 04:02 -0.13261 -78.73771 22192 ft 356 kts 67°
2026-04-22 04:02 -0.12303 -78.71475 21688 ft 359 kts 67°
2026-04-22 04:02 -0.11344 -78.69179 21294 ft 357 kts 67°
2026-04-22 04:03 -0.10712 -78.67663 21059 ft 356 kts 67°
2026-04-22 04:03 -0.09762 -78.65387 20685 ft 355 kts 67°
2026-04-22 04:03 -0.08816 -78.63120 20332 ft 353 kts 67°
2026-04-22 04:03 -0.07870 -78.60855 19952 ft 352 kts 67°
2026-04-22 04:04 -0.06955 -78.58594 19587 ft 350 kts 72°
2026-04-22 04:04 -0.06781 -78.55454 19349 ft 338 kts 103°
2026-04-22 04:04 -0.07631 -78.53313 19187 ft 328 kts 124°
2026-04-22 04:04 -0.08590 -78.52135 19085 ft 320 kts 139°
2026-04-22 04:05 -0.10363 -78.50879 18966 ft 308 kts 155°
2026-04-22 04:05 -0.12350 -78.50204 18829 ft 297 kts 172°
2026-04-22 04:05 -0.14359 -78.49931 18711 ft 287 kts 177°
2026-04-22 04:05 -0.16319 -78.49785 18562 ft 279 kts 178°
2026-04-22 04:06 -0.18227 -78.49666 18424 ft 271 kts 178°
2026-04-22 04:06 -0.20109 -78.49543 18142 ft 270 kts 178°
2026-04-22 04:06 -0.21968 -78.49414 17882 ft 267 kts 178°
2026-04-22 04:06 -0.23820 -78.49278 17618 ft 266 kts 178°
2026-04-22 04:07 -0.25657 -78.49139 17344 ft 264 kts 177°
2026-04-22 04:07 -0.27481 -78.48998 17077 ft 262 kts 178°
2026-04-22 04:07 -0.29296 -78.48856 16808 ft 261 kts 177°
2026-04-22 04:07 -0.31115 -78.48713 16237 ft 273 kts 177°
2026-04-22 04:08 -0.33016 -78.48563 15868 ft 276 kts 177°
2026-04-22 04:08 -0.34932 -78.48411 15556 ft 277 kts 177°
2026-04-22 04:08 -0.36834 -78.48128 15217 ft 279 kts 163°
2026-04-22 04:08 -0.38563 -78.47241 14953 ft 280 kts 146°
2026-04-22 04:09 -0.40038 -78.45972 14690 ft 279 kts 136°
2026-04-22 04:09 -0.41333 -78.44549 14390 ft 274 kts 131°
2026-04-22 04:09 -0.42363 -78.42980 14001 ft 270 kts 108°
2026-04-22 04:09 -0.42387 -78.41170 13687 ft 258 kts 70°
2026-04-22 04:10 -0.41362 -78.39795 13390 ft 244 kts 31°
2026-04-22 04:10 -0.39887 -78.39015 13024 ft 237 kts 21°
2026-04-22 04:10 -0.38402 -78.38369 12748 ft 229 kts 21°
2026-04-22 04:10 -0.36966 -78.37749 12458 ft 222 kts 21°
2026-04-22 04:11 -0.35576 -78.37134 12189 ft 215 kts 22°
2026-04-22 04:11 -0.34237 -78.36535 11913 ft 207 kts 23°
2026-04-22 04:11 -0.32964 -78.35961 11663 ft 199 kts 24°
2026-04-22 04:11 -0.31726 -78.35401 11419 ft 192 kts 24°
2026-04-22 04:12 -0.30503 -78.34906 11212 ft 188 kts 10°
2026-04-22 04:12 -0.29200 -78.34817 11030 ft 191 kts
2026-04-22 04:12 -0.27903 -78.34797 10768 ft 180 kts 359°
2026-04-22 04:12 -0.26694 -78.34831 10527 ft 166 kts 358°
2026-04-22 04:13 -0.25601 -78.34875 10332 ft 151 kts 357°
2026-04-22 04:13 -0.24574 -78.34918 10155 ft 147 kts 357°
2026-04-22 04:13 -0.23534 -78.34964 9969 ft 152 kts 357°
2026-04-22 04:13 -0.22471 -78.35009 9757 ft 152 kts 357°
2026-04-22 04:14 -0.21423 -78.35054 9554 ft 150 kts 357°
2026-04-22 04:14 -0.20384 -78.35099 9362 ft 150 kts 357°
2026-04-22 04:14 -0.19343 -78.35144 9157 ft 150 kts 357°
2026-04-22 04:14 -0.18299 -78.35189 8927 ft 149 kts 357°
2026-04-22 04:15 -0.17268 -78.35233 8661 ft 147 kts 358°
2026-04-22 04:15 -0.16266 -78.35276 8406 ft 141 kts 358°
2026-04-22 04:15 -0.15293 -78.35325 8153 ft 139 kts 359°
2026-04-22 04:15 -0.14330 -78.35365 7979 ft 141 kts 359°
2026-04-22 04:16 -0.13383 -78.35402 7888 ft 130 kts 357°
2026-04-22 04:16 -0.12550 -78.35476 7853 ft 34 kts 332°
2026-04-22 04:16 -0.12419 -78.35577 7844 ft 13 kts 274°
2026-04-22 04:17 -0.12492 -78.35611 7844 ft 13 kts 178°
2026-04-22 04:17 -0.12581 -78.35606 7849 ft 13 kts 177°
2026-04-22 04:17 -0.12667 -78.35602 7853 ft 12 kts 176°
2026-04-22 04:17 -0.12752 -78.35600 7861 ft 12 kts 180°
2026-04-22 04:18 -0.12844 -78.35596 7866 ft 15 kts 178°
2026-04-22 04:18 -0.12965 -78.35592 7870 ft 19 kts 178°
2026-04-22 04:18 -0.13101 -78.35584 7877 ft 19 kts 176°
2026-04-22 04:18 -0.13233 -78.35578 7882 ft 19 kts 179°
2026-04-22 04:19 -0.13360 -78.35573 7884 ft 18 kts 177°
2026-04-22 04:19 -0.13483 -78.35568 7886 ft 17 kts 179°
2026-04-22 04:19 -0.13578 -78.35612 7890 ft 16 kts 244°
2026-04-22 04:19 -0.13674 -78.35629 7893 ft 15 kts 177°
2026-04-22 04:20 -0.13766 -78.35633 7896 ft 9 kts 212°
2026-04-22 04:20 -0.13781 -78.35693 7896 ft 9 kts 268°
2026-04-22 04:20 -0.13782 -78.35720 7895 ft 0 kts 268°